Time,TemperatureF,DewpointF,PressureIn,WindDirection,WindDirectionDegrees,WindSpeedMPH,WindSpeedGustMPH,Humidity,HourlyPrecipIn,Conditions,Clouds,dailyrainin,SoftwareType,DateUTC
2013-01-20 00:02:00,49.9,17.9,30.13,North,0,0.0,0.0,28,0.00,,,0.00,WUHU216HW,2013-01-20 08:02:00,
2013-01-20 00:08:00,49.9,18.7,30.13,North,0,0.0,0.0,29,0.00,,,0.00,WUHU216HW,2013-01-20 08:08:00,
2013-01-20 00:13:00,49.7,17.7,30.13,North,0,0.0,0.0,28,0.00,,,0.00,WUHU216HW,2013-01-20 08:13:00,
2013-01-20 00:18:00,49.7,16.9,30.13,North,0,0.0,0.0,27,0.00,,,0.00,WUHU216HW,2013-01-20 08:18:00,
2013-01-20 00:23:00,49.9,17.0,30.13,North,0,0.0,0.0,27,0.00,,,0.00,WUHU216HW,2013-01-20 08:23:00,
2013-01-20 00:28:00,50.0,17.9,30.13,North,0,0.0,0.0,28,0.00,,,0.00,WUHU216HW,2013-01-20 08:28:00,
2013-01-20 00:33:00,49.9,17.9,30.13,North,0,0.0,0.0,28,0.00,,,0.00,WUHU216HW,2013-01-20 08:33:00,
2013-01-20 00:38:00,49.9,17.8,30.13,North,0,0.0,0.0,28,0.00,,,0.00,WUHU216HW,2013-01-20 08:38:00,
2013-01-20 00:43:00,49.9,17.8,30.13,North,0,0.0,0.0,28,0.00,,,0.00,WUHU216HW,2013-01-20 08:43:00,
2013-01-20 00:48:00,49.9,17.0,30.12,North,0,0.0,0.0,27,0.00,,,0.00,WUHU216HW,2013-01-20 08:48:00,
2013-01-20 00:53:00,49.9,17.8,30.12,North,0,0.0,0.0,28,0.00,,,0.00,WUHU216HW,2013-01-20 08:53:00,
2013-01-20 00:58:00,49.6,16.8,30.13,North,0,0.0,0.0,27,0.00,,,0.00,WUHU216HW,2013-01-20 08:58:00,
2013-01-20 01:03:00,49.8,17.0,30.12,North,0,0.0,0.0,27,0.00,,,0.00,WUHU216HW,2013-01-20 09:03:00,
2013-01-20 01:09:00,49.6,17.6,30.13,North,0,0.0,0.0,28,0.00,,,0.00,WUHU216HW,2013-01-20 09:09:00,
2013-01-20 01:14:00,49.2,17.3,30.12,North,0,0.0,0.0,28,0.00,,,0.00,WUHU216HW,2013-01-20 09:14:00,
2013-01-20 01:19:00,49.4,17.5,30.12,North,0,0.0,0.0,28,0.00,,,0.00,WUHU216HW,2013-01-20 09:19:00,
2013-01-20 01:24:00,49.4,17.5,30.12,North,0,0.0,0.0,28,0.00,,,0.00,WUHU216HW,2013-01-20 09:24:00,
2013-01-20 01:29:00,49.4,17.4,30.12,North,0,0.0,0.0,28,0.00,,,0.00,WUHU216HW,2013-01-20 09:29:00,
2013-01-20 01:34:00,49.4,17.4,30.12,North,0,0.0,0.0,28,0.00,,,0.00,WUHU216HW,2013-01-20 09:34:00,
2013-01-20 01:39:00,49.0,17.1,30.12,North,0,0.0,0.0,28,0.00,,,0.00,WUHU216HW,2013-01-20 09:39:00,
2013-01-20 01:44:00,49.0,17.1,30.12,North,0,0.0,0.0,28,0.00,,,0.00,WUHU216HW,2013-01-20 09:44:00,
2013-01-20 01:49:00,49.0,17.9,30.12,North,0,0.0,0.0,29,0.00,,,0.00,WUHU216HW,2013-01-20 09:49:00,
2013-01-20 01:54:00,49.0,18.7,30.12,North,0,0.0,0.0,30,0.00,,,0.00,WUHU216HW,2013-01-20 09:54:00,
2013-01-20 01:59:00,49.0,17.9,30.12,North,0,0.0,0.0,29,0.00,,,0.00,WUHU216HW,2013-01-20 09:59:00,
2013-01-20 02:04:00,49.0,18.7,30.12,North,0,0.0,0.0,30,0.00,,,0.00,WUHU216HW,2013-01-20 10:04:00,
2013-01-20 02:10:00,49.0,17.9,30.12,North,0,0.0,0.0,29,0.00,,,0.00,WUHU216HW,2013-01-20 10:10:00,
2013-01-20 02:15:00,49.4,18.2,30.13,North,0,0.0,0.0,29,0.00,,,0.00,WUHU216HW,2013-01-20 10:15:00,
2013-01-20 02:20:00,49.6,18.4,30.13,North,0,0.0,0.0,29,0.00,,,0.00,WUHU216HW,2013-01-20 10:20:00,
2013-01-20 02:25:00,49.4,18.2,30.13,North,0,0.0,0.0,29,0.00,,,0.00,WUHU216HW,2013-01-20 10:25:00,
2013-01-20 02:30:00,49.0,17.9,30.13,North,0,0.0,0.0,29,0.00,,,0.00,WUHU216HW,2013-01-20 10:30:00,
2013-01-20 02:35:00,49.0,18.7,30.13,North,0,0.0,0.0,30,0.00,,,0.00,WUHU216HW,2013-01-20 10:35:00,
2013-01-20 02:40:00,49.0,17.9,30.13,North,0,0.0,0.0,29,0.00,,,0.00,WUHU216HW,2013-01-20 10:40:00,
2013-01-20 02:45:00,49.2,18.9,30.13,North,0,0.0,0.0,30,0.00,,,0.00,WUHU216HW,2013-01-20 10:45:00,
2013-01-20 02:50:00,49.0,18.7,30.13,North,0,0.0,0.0,30,0.00,,,0.00,WUHU216HW,2013-01-20 10:50:00,
2013-01-20 02:55:00,49.2,18.9,30.13,North,0,0.0,0.0,30,0.00,,,0.00,WUHU216HW,2013-01-20 10:55:00,
2013-01-20 03:00:00,49.0,18.7,30.13,North,0,0.0,0.0,30,0.00,,,0.00,WUHU216HW,2013-01-20 11:00:00,
2013-01-20 03:06:00,48.7,19.2,30.12,North,0,0.0,0.0,31,0.00,,,0.00,WUHU216HW,2013-01-20 11:06:00,
2013-01-20 03:11:00,48.9,18.6,30.12,North,0,0.0,0.0,30,0.00,,,0.00,WUHU216HW,2013-01-20 11:11:00,
2013-01-20 03:16:00,48.9,19.4,30.12,North,0,0.0,0.0,31,0.00,,,0.00,WUHU216HW,2013-01-20 11:16:00,
2013-01-20 03:21:00,48.9,19.4,30.12,North,0,0.0,0.0,31,0.00,,,0.00,WUHU216HW,2013-01-20 11:21:00,
2013-01-20 03:26:00,48.7,19.2,30.12,North,0,0.0,0.0,31,0.00,,,0.00,WUHU216HW,2013-01-20 11:26:00,
2013-01-20 03:31:00,48.7,19.2,30.12,North,0,0.0,0.0,31,0.00,,,0.00,WUHU216HW,2013-01-20 11:31:00,
2013-01-20 03:36:00,49.0,19.4,30.12,North,0,0.0,0.0,31,0.00,,,0.00,WUHU216HW,2013-01-20 11:36:00,
2013-01-20 03:41:00,49.0,19.4,30.12,North,0,0.0,0.0,31,0.00,,,0.00,WUHU216HW,2013-01-20 11:41:00,
2013-01-20 03:46:00,49.5,19.1,30.12,North,0,0.0,0.0,30,0.00,,,0.00,WUHU216HW,2013-01-20 11:46:00,
2013-01-20 03:51:00,49.7,18.5,30.12,North,0,0.0,0.0,29,0.00,,,0.00,WUHU216HW,2013-01-20 11:51:00,
2013-01-20 03:57:00,49.5,19.1,30.12,North,0,0.0,0.0,30,0.00,,,0.00,WUHU216HW,2013-01-20 11:57:00,
2013-01-20 04:02:00,49.3,19.7,30.11,North,0,0.0,0.0,31,0.00,,,0.00,WUHU216HW,2013-01-20 12:02:00,
2013-01-20 04:07:00,49.3,18.9,30.11,North,0,0.0,0.0,30,0.00,,,0.00,WUHU216HW,2013-01-20 12:07:00,
2013-01-20 04:12:00,49.1,19.5,30.11,North,0,0.0,0.0,31,0.00,,,0.00,WUHU216HW,2013-01-20 12:12:00,
2013-01-20 04:17:00,49.0,19.4,30.11,North,0,0.0,0.0,31,0.00,,,0.00,WUHU216HW,2013-01-20 12:17:00,
2013-01-20 04:22:00,49.0,20.2,30.11,North,0,0.0,0.0,32,0.00,,,0.00,WUHU216HW,2013-01-20 12:22:00,
2013-01-20 04:27:00,49.1,20.3,30.11,North,0,0.0,0.0,32,0.00,,,0.00,WUHU216HW,2013-01-20 12:27:00,
2013-01-20 04:32:00,49.5,20.6,30.11,North,0,0.0,0.0,32,0.00,,,0.00,WUHU216HW,2013-01-20 12:32:00,
2013-01-20 04:37:00,49.6,19.9,30.11,North,0,0.0,0.0,31,0.00,,,0.00,WUHU216HW,2013-01-20 12:37:00,
2013-01-20 04:42:00,49.6,19.9,30.11,North,0,0.0,0.0,31,0.00,,,0.00,WUHU216HW,2013-01-20 12:42:00,
2013-01-20 04:47:00,49.6,19.9,30.11,North,0,0.0,0.0,31,0.00,,,0.00,WUHU216HW,2013-01-20 12:47:00,
2013-01-20 04:52:00,49.4,19.8,30.10,North,0,0.0,0.0,31,0.00,,,0.00,WUHU216HW,2013-01-20 12:52:00,
2013-01-20 04:57:00,49.6,20.0,30.11,North,0,0.0,0.0,31,0.00,,,0.00,WUHU216HW,2013-01-20 12:57:00,
2013-01-20 05:03:00,49.6,20.0,30.11,North,0,0.0,0.0,31,0.00,,,0.00,WUHU216HW,2013-01-20 13:03:00,
2013-01-20 05:08:00,49.4,19.8,30.10,North,0,0.0,0.0,31,0.00,,,0.00,WUHU216HW,2013-01-20 13:08:00,
2013-01-20 05:13:00,49.4,20.6,30.10,North,0,0.0,0.0,32,0.00,,,0.00,WUHU216HW,2013-01-20 13:13:00,
2013-01-20 05:18:00,49.2,20.3,30.10,North,0,0.0,0.0,32,0.00,,,0.00,WUHU216HW,2013-01-20 13:18:00,
2013-01-20 05:23:00,49.2,20.3,30.10,North,0,0.0,0.0,32,0.00,,,0.00,WUHU216HW,2013-01-20 13:23:00,
2013-01-20 05:28:00,49.0,20.2,30.10,North,0,0.0,0.0,32,0.00,,,0.00,WUHU216HW,2013-01-20 13:28:00,
2013-01-20 05:33:00,49.2,20.3,30.10,North,0,0.0,0.0,32,0.00,,,0.00,WUHU216HW,2013-01-20 13:33:00,
2013-01-20 05:38:00,49.3,20.4,30.10,North,0,0.0,0.0,32,0.00,,,0.00,WUHU216HW,2013-01-20 13:38:00,
2013-01-20 05:43:00,49.2,20.4,30.10,North,0,0.0,0.0,32,0.00,,,0.00,WUHU216HW,2013-01-20 13:43:00,
2013-01-20 05:48:00,49.0,20.2,30.10,North,0,0.0,0.0,32,0.00,,,0.00,WUHU216HW,2013-01-20 13:48:00,
2013-01-20 05:53:00,48.7,19.9,30.10,North,0,0.0,0.0,32,0.00,,,0.00,WUHU216HW,2013-01-20 13:53:00,
2013-01-20 05:58:00,48.5,20.4,30.10,North,0,0.0,0.0,33,0.00,,,0.00,WUHU216HW,2013-01-20 13:58:00,
2013-01-20 06:03:00,48.0,20.7,30.09,North,0,0.0,0.0,34,0.00,,,0.00,WUHU216HW,2013-01-20 14:03:00,
2013-01-20 06:08:00,47.8,20.5,30.10,North,0,0.0,0.0,34,0.00,,,0.00,WUHU216HW,2013-01-20 14:08:00,
2013-01-20 06:13:00,47.6,19.7,30.09,North,0,0.0,0.0,33,0.00,,,0.00,WUHU216HW,2013-01-20 14:13:00,
2013-01-20 06:18:00,47.5,20.3,30.09,North,0,0.0,0.0,34,0.00,,,0.00,WUHU216HW,2013-01-20 14:18:00,
2013-01-20 06:23:00,47.6,20.3,30.09,North,0,0.0,0.0,34,0.00,,,0.00,WUHU216HW,2013-01-20 14:23:00,
2013-01-20 06:28:00,47.6,21.0,30.10,North,0,0.0,0.0,35,0.00,,,0.00,WUHU216HW,2013-01-20 14:28:00,
2013-01-20 06:33:00,47.6,21.0,30.09,North,0,0.0,0.0,35,0.00,,,0.00,WUHU216HW,2013-01-20 14:33:00,
2013-01-20 06:38:00,47.7,20.5,30.09,North,0,0.0,0.0,34,0.00,,,0.00,WUHU216HW,2013-01-20 14:38:00,
2013-01-20 06:43:00,47.9,20.6,30.09,North,0,0.0,0.0,34,0.00,,,0.00,WUHU216HW,2013-01-20 14:43:00,
2013-01-20 06:48:00,47.9,20.7,30.09,North,0,0.0,0.0,34,0.00,,,0.00,WUHU216HW,2013-01-20 14:48:00,
2013-01-20 06:53:00,48.2,20.2,30.09,North,0,0.0,0.0,33,0.00,,,0.00,WUHU216HW,2013-01-20 14:53:00,
2013-01-20 06:58:00,48.6,21.2,30.09,North,0,0.0,0.0,34,0.00,,,0.00,WUHU216HW,2013-01-20 14:58:00,
2013-01-20 07:04:00,48.2,20.2,30.09,North,0,0.0,0.0,33,0.00,,,0.00,WUHU216HW,2013-01-20 15:04:00,
2013-01-20 07:09:00,48.0,20.7,30.09,North,0,0.0,0.0,34,0.00,,,0.00,WUHU216HW,2013-01-20 15:09:00,
2013-01-20 07:14:00,47.8,19.9,30.09,North,0,0.0,0.0,33,0.00,,,0.00,WUHU216HW,2013-01-20 15:14:00,
2013-01-20 07:19:00,48.1,20.8,30.09,North,0,0.0,0.0,34,0.00,,,0.00,WUHU216HW,2013-01-20 15:19:00,
2013-01-20 07:24:00,48.1,20.8,30.09,North,0,0.0,0.0,34,0.00,,,0.00,WUHU216HW,2013-01-20 15:24:00,
2013-01-20 07:29:00,47.9,20.6,30.09,North,0,0.0,0.0,34,0.00,,,0.00,WUHU216HW,2013-01-20 15:29:00,
2013-01-20 07:34:00,47.9,20.6,30.10,North,0,0.0,0.0,34,0.00,,,0.00,WUHU216HW,2013-01-20 15:34:00,
2013-01-20 07:39:00,48.3,21.0,30.09,North,0,0.0,0.0,34,0.00,,,0.00,WUHU216HW,2013-01-20 15:39:00,
2013-01-20 07:44:00,48.3,21.0,30.09,North,0,0.0,0.0,34,0.00,,,0.00,WUHU216HW,2013-01-20 15:44:00,
2013-01-20 07:49:00,48.4,21.0,30.09,North,0,0.0,0.0,34,0.00,,,0.00,WUHU216HW,2013-01-20 15:49:00,
2013-01-20 07:54:00,48.6,19.8,30.09,North,0,0.0,0.0,32,0.00,,,0.00,WUHU216HW,2013-01-20 15:54:00,
2013-01-20 07:59:00,49.3,20.4,30.10,North,0,0.0,0.0,32,0.00,,,0.00,WUHU216HW,2013-01-20 15:59:00,
2013-01-20 08:04:00,49.5,20.6,30.10,North,0,0.0,0.0,32,0.00,,,0.00,WUHU216HW,2013-01-20 16:04:00,
2013-01-20 08:09:00,49.3,20.5,30.10,North,0,0.0,0.0,32,0.00,,,0.00,WUHU216HW,2013-01-20 16:09:00,
2013-01-20 08:14:00,49.6,21.4,30.10,North,0,0.0,0.0,33,0.00,,,0.00,WUHU216HW,2013-01-20 16:14:00,
2013-01-20 08:19:00,49.6,21.4,30.10,North,0,0.0,0.0,33,0.00,,,0.00,WUHU216HW,2013-01-20 16:19:00,
2013-01-20 08:25:00,49.8,21.6,30.10,North,0,0.0,0.0,33,0.00,,,0.00,WUHU216HW,2013-01-20 16:25:00,
2013-01-20 08:30:00,49.9,21.7,30.10,North,0,0.0,0.0,33,0.00,,,0.00,WUHU216HW,2013-01-20 16:30:00,
2013-01-20 08:35:00,50.0,21.7,30.10,North,0,0.0,0.0,33,0.00,,,0.00,WUHU216HW,2013-01-20 16:35:00,
2013-01-20 08:40:00,50.0,22.5,30.10,North,0,0.0,0.0,34,0.00,,,0.00,WUHU216HW,2013-01-20 16:40:00,
2013-01-20 08:45:00,50.4,22.8,30.11,North,0,0.0,0.0,34,0.00,,,0.00,WUHU216HW,2013-01-20 16:45:00,
2013-01-20 08:50:00,50.4,22.1,30.11,North,0,0.0,0.0,33,0.00,,,0.00,WUHU216HW,2013-01-20 16:50:00,
2013-01-20 08:55:00,50.8,21.8,30.11,North,0,0.0,0.0,32,0.00,,,0.00,WUHU216HW,2013-01-20 16:55:00,
2013-01-20 09:00:00,51.0,23.3,30.11,North,0,0.0,0.0,34,0.00,,,0.00,WUHU216HW,2013-01-20 17:00:00,
2013-01-20 09:05:00,51.0,24.7,30.12,North,0,0.0,0.0,36,0.00,,,0.00,WUHU216HW,2013-01-20 17:05:00,
2013-01-20 09:10:00,51.2,23.5,30.12,North,0,0.0,0.0,34,0.00,,,0.00,WUHU216HW,2013-01-20 17:10:00,
2013-01-20 09:15:00,51.8,24.8,30.12,North,0,0.0,0.0,35,0.00,,,0.00,WUHU216HW,2013-01-20 17:15:00,
2013-01-20 09:20:00,51.9,23.5,30.12,North,0,0.0,0.0,33,0.00,,,0.00,WUHU216HW,2013-01-20 17:20:00,
2013-01-20 09:26:00,52.9,25.0,30.12,North,0,0.0,0.0,34,0.00,,,0.00,WUHU216HW,2013-01-20 17:26:00,
2013-01-20 09:30:00,53.7,25.0,30.12,North,0,0.0,0.0,33,0.00,,,0.00,WUHU216HW,2013-01-20 17:30:00,
2013-01-20 09:36:00,53.8,22.1,30.12,North,0,0.0,0.0,29,0.00,,,0.00,WUHU216HW,2013-01-20 17:36:00,
2013-01-20 09:41:00,54.0,23.8,30.12,North,0,0.0,0.0,31,0.00,,,0.00,WUHU216HW,2013-01-20 17:41:00,
2013-01-20 09:46:00,54.1,23.1,30.12,North,0,0.0,0.0,30,0.00,,,0.00,WUHU216HW,2013-01-20 17:46:00,
2013-01-20 09:51:00,54.3,22.5,30.12,North,0,0.0,0.0,29,0.00,,,0.00,WUHU216HW,2013-01-20 17:51:00,
2013-01-20 09:56:00,54.5,24.2,30.13,North,0,0.0,0.0,31,0.00,,,0.00,WUHU216HW,2013-01-20 17:56:00,
2013-01-20 10:01:00,54.8,22.9,30.13,North,0,0.0,0.0,29,0.00,,,0.00,WUHU216HW,2013-01-20 18:01:00,
2013-01-20 10:06:00,55.4,22.7,30.13,North,0,0.0,0.0,28,0.00,,,0.00,WUHU216HW,2013-01-20 18:06:00,
2013-01-20 10:11:00,55.8,22.9,30.13,North,0,0.0,0.0,28,0.00,,,0.00,WUHU216HW,2013-01-20 18:11:00,
2013-01-20 10:16:00,56.2,23.3,30.13,North,0,0.0,0.0,28,0.00,,,0.00,WUHU216HW,2013-01-20 18:16:00,
2013-01-20 10:22:00,56.2,23.3,30.12,North,0,0.0,0.0,28,0.00,,,0.00,WUHU216HW,2013-01-20 18:22:00,
2013-01-20 10:27:00,56.4,22.6,30.12,North,0,0.0,0.0,27,0.00,,,0.00,WUHU216HW,2013-01-20 18:27:00,
2013-01-20 10:32:00,56.6,22.8,30.12,North,0,0.0,0.0,27,0.00,,,0.00,WUHU216HW,2013-01-20 18:32:00,
2013-01-20 10:37:00,57.0,20.4,30.12,North,0,0.0,0.0,24,0.00,,,0.00,WUHU216HW,2013-01-20 18:37:00,
2013-01-20 10:42:00,57.0,23.1,30.12,North,0,0.0,0.0,27,0.00,,,0.00,WUHU216HW,2013-01-20 18:42:00,
2013-01-20 10:47:00,57.2,22.4,30.12,North,0,0.0,0.0,26,0.00,,,0.00,WUHU216HW,2013-01-20 18:47:00,
2013-01-20 10:52:00,57.4,22.6,30.12,North,0,0.0,0.0,26,0.00,,,0.00,WUHU216HW,2013-01-20 18:52:00,
2013-01-20 10:57:00,57.4,21.7,30.12,North,0,0.0,0.0,25,0.00,,,0.00,WUHU216HW,2013-01-20 18:57:00,
2013-01-20 11:02:00,57.8,22.0,30.12,North,0,0.0,0.0,25,0.00,,,0.00,WUHU216HW,2013-01-20 19:02:00,
2013-01-20 11:07:00,57.8,21.1,30.12,North,0,0.0,0.0,24,0.00,,,0.00,WUHU216HW,2013-01-20 19:07:00,
2013-01-20 11:13:00,58.0,22.2,30.12,North,0,0.0,0.0,25,0.00,,,0.00,WUHU216HW,2013-01-20 19:13:00,
2013-01-20 11:18:00,58.2,22.4,30.12,North,0,0.0,0.0,25,0.00,,,0.00,WUHU216HW,2013-01-20 19:18:00,
2013-01-20 11:23:00,58.4,20.6,30.11,North,0,0.0,0.0,23,0.00,,,0.00,WUHU216HW,2013-01-20 19:23:00,
2013-01-20 11:28:00,58.6,21.8,30.11,North,0,0.0,0.0,24,0.00,,,0.00,WUHU216HW,2013-01-20 19:28:00,
2013-01-20 11:33:00,58.7,21.8,30.11,North,0,0.0,0.0,24,0.00,,,0.00,WUHU216HW,2013-01-20 19:33:00,
2013-01-20 11:38:00,58.8,20.9,30.11,North,0,0.0,0.0,23,0.00,,,0.00,WUHU216HW,2013-01-20 19:38:00,
2013-01-20 11:43:00,58.8,22.9,30.10,North,0,0.0,0.0,25,0.00,,,0.00,WUHU216HW,2013-01-20 19:43:00,
2013-01-20 11:48:00,59.0,22.1,30.10,North,0,0.0,0.0,24,0.00,,,0.00,WUHU216HW,2013-01-20 19:48:00,
2013-01-20 11:53:00,59.0,23.1,30.10,North,0,0.0,0.0,25,0.00,,,0.00,WUHU216HW,2013-01-20 19:53:00,
2013-01-20 11:58:00,58.8,22.0,30.10,North,0,0.0,0.0,24,0.00,,,0.00,WUHU216HW,2013-01-20 19:58:00,
2013-01-20 12:03:00,59.1,23.1,30.10,North,0,0.0,0.0,25,0.00,,,0.00,WUHU216HW,2013-01-20 20:03:00,
2013-01-20 12:08:00,59.1,23.1,30.09,North,0,0.0,0.0,25,0.00,,,0.00,WUHU216HW,2013-01-20 20:08:00,
2013-01-20 12:13:00,59.3,23.3,30.09,North,0,0.0,0.0,25,0.00,,,0.00,WUHU216HW,2013-01-20 20:13:00,
2013-01-20 12:18:00,59.1,22.2,30.09,North,0,0.0,0.0,24,0.00,,,0.00,WUHU216HW,2013-01-20 20:18:00,
2013-01-20 12:23:00,59.1,23.2,30.09,North,0,0.0,0.0,25,0.00,,,0.00,WUHU216HW,2013-01-20 20:23:00,
2013-01-20 12:29:00,59.3,25.1,30.09,North,0,0.0,0.0,27,0.00,,,0.00,WUHU216HW,2013-01-20 20:29:00,
2013-01-20 12:34:00,59.5,25.3,30.08,North,0,0.0,0.0,27,0.00,,,0.00,WUHU216HW,2013-01-20 20:34:00,
2013-01-20 12:39:00,59.5,25.3,30.08,North,0,0.0,0.0,27,0.00,,,0.00,WUHU216HW,2013-01-20 20:39:00,
2013-01-20 12:44:00,59.6,23.5,30.08,North,0,0.0,0.0,25,0.00,,,0.00,WUHU216HW,2013-01-20 20:44:00,
2013-01-20 12:49:00,59.6,25.4,30.08,North,0,0.0,0.0,27,0.00,,,0.00,WUHU216HW,2013-01-20 20:49:00,
2013-01-20 12:54:00,59.8,23.7,30.08,North,0,0.0,0.0,25,0.00,,,0.00,WUHU216HW,2013-01-20 20:54:00,
2013-01-20 12:59:00,59.9,25.6,30.07,North,0,0.0,0.0,27,0.00,,,0.00,WUHU216HW,2013-01-20 20:59:00,
2013-01-20 13:04:00,59.9,25.6,30.07,North,0,0.0,0.0,27,0.00,,,0.00,WUHU216HW,2013-01-20 21:04:00,
2013-01-20 13:09:00,59.9,26.5,30.07,North,0,0.0,0.0,28,0.00,,,0.00,WUHU216HW,2013-01-20 21:09:00,
2013-01-20 13:14:00,59.9,26.5,30.07,North,0,0.0,0.0,28,0.00,,,0.00,WUHU216HW,2013-01-20 21:14:00,
2013-01-20 13:19:00,60.1,27.5,30.07,North,0,0.0,0.0,29,0.00,,,0.00,WUHU216HW,2013-01-20 21:19:00,
2013-01-20 13:24:00,60.1,27.6,30.06,North,0,0.0,0.0,29,0.00,,,0.00,WUHU216HW,2013-01-20 21:24:00,
2013-01-20 13:29:00,60.1,27.6,30.06,North,0,0.0,0.0,29,0.00,,,0.00,WUHU216HW,2013-01-20 21:29:00,
2013-01-20 13:34:00,60.2,27.6,30.06,North,0,0.0,0.0,29,0.00,,,0.00,WUHU216HW,2013-01-20 21:34:00,
2013-01-20 13:39:00,60.2,29.2,30.06,North,0,0.0,0.0,31,0.00,,,0.00,WUHU216HW,2013-01-20 21:39:00,
2013-01-20 13:44:00,60.2,28.4,30.06,North,0,0.0,0.0,30,0.00,,,0.00,WUHU216HW,2013-01-20 21:44:00,
2013-01-20 13:50:00,60.4,29.4,30.06,North,0,0.0,0.0,31,0.00,,,0.00,WUHU216HW,2013-01-20 21:50:00,
2013-01-20 13:55:00,60.6,29.6,30.06,North,0,0.0,0.0,31,0.00,,,0.00,WUHU216HW,2013-01-20 21:55:00,
2013-01-20 14:00:00,60.8,30.5,30.06,North,0,0.0,0.0,32,0.00,,,0.00,WUHU216HW,2013-01-20 22:00:00,
2013-01-20 14:05:00,61.1,30.0,30.05,North,0,0.0,0.0,31,0.00,,,0.00,WUHU216HW,2013-01-20 22:05:00,
2013-01-20 14:10:00,61.1,30.0,30.05,North,0,0.0,0.0,31,0.00,,,0.00,WUHU216HW,2013-01-20 22:10:00,
2013-01-20 14:15:00,61.5,29.6,30.05,North,0,0.0,0.0,30,0.00,,,0.00,WUHU216HW,2013-01-20 22:15:00,
2013-01-20 14:20:00,61.8,29.8,30.05,North,0,0.0,0.0,30,0.00,,,0.00,WUHU216HW,2013-01-20 22:20:00,
2013-01-20 14:25:00,62.6,29.7,30.05,North,0,0.0,0.0,29,0.00,,,0.00,WUHU216HW,2013-01-20 22:25:00,
2013-01-20 14:30:00,62.4,29.5,30.05,North,0,0.0,0.0,29,0.00,,,0.00,WUHU216HW,2013-01-20 22:30:00,
2013-01-20 14:35:00,61.5,28.7,30.04,North,0,0.0,0.0,29,0.00,,,0.00,WUHU216HW,2013-01-20 22:35:00,
2013-01-20 14:40:00,60.9,29.0,30.05,North,0,0.0,0.0,30,0.00,,,0.00,WUHU216HW,2013-01-20 22:40:00,
2013-01-20 14:45:00,60.8,28.9,30.04,North,0,0.0,0.0,30,0.00,,,0.00,WUHU216HW,2013-01-20 22:45:00,
2013-01-20 14:50:00,60.4,27.8,30.04,North,0,0.0,0.0,29,0.00,,,0.00,WUHU216HW,2013-01-20 22:50:00,
2013-01-20 14:55:00,60.4,27.8,30.04,North,0,0.0,0.0,29,0.00,,,0.00,WUHU216HW,2013-01-20 22:55:00,
2013-01-20 15:00:00,60.4,26.9,30.04,North,0,0.0,0.0,28,0.00,,,0.00,WUHU216HW,2013-01-20 23:00:00,
2013-01-20 15:06:00,60.4,27.8,30.04,North,0,0.0,0.0,29,0.00,,,0.00,WUHU216HW,2013-01-20 23:06:00,
2013-01-20 15:11:00,60.6,27.1,30.04,North,0,0.0,0.0,28,0.00,,,0.00,WUHU216HW,2013-01-20 23:11:00,
2013-01-20 15:16:00,60.6,27.9,30.04,North,0,0.0,0.0,29,0.00,,,0.00,WUHU216HW,2013-01-20 23:16:00,
2013-01-20 15:21:00,60.4,27.8,30.05,North,0,0.0,0.0,29,0.00,,,0.00,WUHU216HW,2013-01-20 23:21:00,
2013-01-20 15:26:00,60.4,26.9,30.05,North,0,0.0,0.0,28,0.00,,,0.00,WUHU216HW,2013-01-20 23:26:00,
2013-01-20 15:31:00,60.8,27.3,30.05,North,0,0.0,0.0,28,0.00,,,0.00,WUHU216HW,2013-01-20 23:31:00,
2013-01-20 15:36:00,60.8,26.4,30.05,North,0,0.0,0.0,27,0.00,,,0.00,WUHU216HW,2013-01-20 23:36:00,
2013-01-20 15:42:00,60.9,26.5,30.05,North,0,0.0,0.0,27,0.00,,,0.00,WUHU216HW,2013-01-20 23:42:00,
2013-01-20 15:47:00,61.1,28.4,30.05,North,0,0.0,0.0,29,0.00,,,0.00,WUHU216HW,2013-01-20 23:47:00,
2013-01-20 15:52:00,60.8,27.3,30.06,North,0,0.0,0.0,28,0.00,,,0.00,WUHU216HW,2013-01-20 23:52:00,
2013-01-20 15:58:00,60.4,27.7,30.06,North,0,0.0,0.0,29,0.00,,,0.00,WUHU216HW,2013-01-20 23:58:00,
2013-01-20 16:03:00,60.1,27.6,30.06,North,0,0.0,0.0,29,0.00,,,0.00,WUHU216HW,2013-01-21 00:03:00,
2013-01-20 16:08:00,60.3,24.2,30.06,North,0,0.0,0.0,25,0.00,,,0.00,WUHU216HW,2013-01-21 00:08:00,
2013-01-20 16:13:00,60.3,24.2,30.06,North,0,0.0,0.0,25,0.00,,,0.00,WUHU216HW,2013-01-21 00:13:00,
2013-01-20 16:18:00,60.1,25.8,30.06,North,0,0.0,0.0,27,0.00,,,0.00,WUHU216HW,2013-01-21 00:18:00,
2013-01-20 16:23:00,59.6,25.4,30.06,North,0,0.0,0.0,27,0.00,,,0.00,WUHU216HW,2013-01-21 00:23:00,
2013-01-20 16:28:00,59.0,25.7,30.07,North,0,0.0,0.0,28,0.00,,,0.00,WUHU216HW,2013-01-21 00:28:00,
2013-01-20 16:33:00,58.1,26.6,30.07,North,0,0.0,0.0,30,0.00,,,0.00,WUHU216HW,2013-01-21 00:33:00,
2013-01-20 16:38:00,57.6,26.2,30.07,North,0,0.0,0.0,30,0.00,,,0.00,WUHU216HW,2013-01-21 00:38:00,
2013-01-20 16:43:00,57.6,25.3,30.07,North,0,0.0,0.0,29,0.00,,,0.00,WUHU216HW,2013-01-21 00:43:00,
2013-01-20 16:48:00,57.8,26.3,30.06,North,0,0.0,0.0,30,0.00,,,0.00,WUHU216HW,2013-01-21 00:48:00,
2013-01-20 16:53:00,57.6,26.9,30.06,North,0,0.0,0.0,31,0.00,,,0.00,WUHU216HW,2013-01-21 00:53:00,
2013-01-20 16:58:00,57.1,27.3,30.06,North,0,0.0,0.0,32,0.00,,,0.00,WUHU216HW,2013-01-21 00:58:00,
2013-01-20 17:04:00,56.6,28.3,30.06,North,0,0.0,0.0,34,0.00,,,0.00,WUHU216HW,2013-01-21 01:04:00,
2013-01-20 17:09:00,56.2,27.3,30.06,North,0,0.0,0.0,33,0.00,,,0.00,WUHU216HW,2013-01-21 01:09:00,
2013-01-20 17:14:00,56.1,26.4,30.06,North,0,0.0,0.0,32,0.00,,,0.00,WUHU216HW,2013-01-21 01:14:00,
2013-01-20 17:19:00,55.7,26.8,30.06,North,0,0.0,0.0,33,0.00,,,0.00,WUHU216HW,2013-01-21 01:19:00,
2013-01-20 17:24:00,55.3,27.9,30.06,North,0,0.0,0.0,35,0.00,,,0.00,WUHU216HW,2013-01-21 01:24:00,
2013-01-20 17:29:00,54.4,29.1,30.06,North,0,0.0,0.0,38,0.00,,,0.00,WUHU216HW,2013-01-21 01:29:00,
2013-01-20 17:34:00,53.3,30.7,30.06,North,0,0.0,0.0,42,0.00,,,0.00,WUHU216HW,2013-01-21 01:34:00,
2013-01-20 17:39:00,52.2,29.7,30.06,North,0,0.0,0.0,42,0.00,,,0.00,WUHU216HW,2013-01-21 01:39:00,
2013-01-20 17:44:00,51.5,30.2,30.06,North,0,0.0,0.0,44,0.00,,,0.00,WUHU216HW,2013-01-21 01:44:00,
2013-01-20 17:49:00,50.7,32.7,30.06,North,0,0.0,0.0,50,0.00,,,0.00,WUHU216HW,2013-01-21 01:49:00,
2013-01-20 17:54:00,49.8,29.7,30.06,North,0,0.0,0.0,46,0.00,,,0.00,WUHU216HW,2013-01-21 01:54:00,
2013-01-20 17:59:00,49.8,30.3,30.06,North,0,0.0,0.0,47,0.00,,,0.00,WUHU216HW,2013-01-21 01:59:00,
2013-01-20 18:04:00,49.1,30.7,30.06,North,0,0.0,0.0,49,0.00,,,0.00,WUHU216HW,2013-01-21 02:04:00,
2013-01-20 18:09:00,48.1,30.3,30.06,North,0,0.0,0.0,50,0.00,,,0.00,WUHU216HW,2013-01-21 02:09:00,
2013-01-20 18:14:00,47.8,29.0,30.06,North,0,0.0,0.0,48,0.00,,,0.00,WUHU216HW,2013-01-21 02:14:00,
2013-01-20 18:20:00,47.6,29.3,30.06,North,0,0.0,0.0,49,0.00,,,0.00,WUHU216HW,2013-01-21 02:20:00,
2013-01-20 18:25:00,47.4,28.6,30.06,North,0,0.0,0.0,48,0.00,,,0.00,WUHU216HW,2013-01-21 02:25:00,
2013-01-20 18:30:00,47.4,26.4,30.06,North,0,0.0,0.0,44,0.00,,,0.00,WUHU216HW,2013-01-21 02:30:00,
2013-01-20 18:35:00,48.2,24.2,30.06,North,0,0.0,0.0,39,0.00,,,0.00,WUHU216HW,2013-01-21 02:35:00,
2013-01-20 18:40:00,48.6,23.9,30.07,North,0,0.0,0.0,38,0.00,,,0.00,WUHU216HW,2013-01-21 02:40:00,
2013-01-20 18:45:00,48.9,23.5,30.07,North,0,0.0,0.0,37,0.00,,,0.00,WUHU216HW,2013-01-21 02:45:00,
2013-01-20 18:50:00,49.1,23.7,30.07,North,0,0.0,0.0,37,0.00,,,0.00,WUHU216HW,2013-01-21 02:50:00,
2013-01-20 18:55:00,49.3,23.2,30.07,North,0,0.0,0.0,36,0.00,,,0.00,WUHU216HW,2013-01-21 02:55:00,
2013-01-20 19:00:00,49.0,25.0,30.07,North,0,0.0,0.0,39,0.00,,,0.00,WUHU216HW,2013-01-21 03:00:00,
2013-01-20 19:05:00,47.9,26.9,30.07,North,0,0.0,0.0,44,0.00,,,0.00,WUHU216HW,2013-01-21 03:05:00,
2013-01-20 19:10:00,47.4,27.0,30.07,North,0,0.0,0.0,45,0.00,,,0.00,WUHU216HW,2013-01-21 03:10:00,
2013-01-20 19:16:00,47.0,24.9,30.07,North,0,0.0,0.0,42,0.00,,,0.00,WUHU216HW,2013-01-21 03:16:00,
2013-01-20 19:20:00,47.0,26.0,30.07,North,0,0.0,0.0,44,0.00,,,0.00,WUHU216HW,2013-01-21 03:20:00,
2013-01-20 19:26:00,46.6,25.2,30.07,North,0,0.0,0.0,43,0.00,,,0.00,WUHU216HW,2013-01-21 03:26:00,
2013-01-20 19:31:00,45.8,25.0,30.07,North,0,0.0,0.0,44,0.00,,,0.00,WUHU216HW,2013-01-21 03:31:00,
2013-01-20 19:36:00,45.7,26.5,30.07,North,0,0.0,0.0,47,0.00,,,0.00,WUHU216HW,2013-01-21 03:36:00,
2013-01-20 19:41:00,45.3,24.5,30.07,North,0,0.0,0.0,44,0.00,,,0.00,WUHU216HW,2013-01-21 03:41:00,
2013-01-20 19:46:00,45.8,23.2,30.07,North,0,0.0,0.0,41,0.00,,,0.00,WUHU216HW,2013-01-21 03:46:00,
2013-01-20 19:51:00,46.1,24.7,30.08,North,0,0.0,0.0,43,0.00,,,0.00,WUHU216HW,2013-01-21 03:51:00,
2013-01-20 19:56:00,45.2,24.4,30.07,North,0,0.0,0.0,44,0.00,,,0.00,WUHU216HW,2013-01-21 03:56:00,
2013-01-20 20:01:00,45.3,24.0,30.07,North,0,0.0,0.0,43,0.00,,,0.00,WUHU216HW,2013-01-21 04:01:00,
2013-01-20 20:06:00,45.3,25.6,30.07,North,0,0.0,0.0,46,0.00,,,0.00,WUHU216HW,2013-01-21 04:06:00,
2013-01-20 20:11:00,45.5,24.7,30.07,North,0,0.0,0.0,44,0.00,,,0.00,WUHU216HW,2013-01-21 04:11:00,
2013-01-20 20:16:00,45.9,24.5,30.08,North,0,0.0,0.0,43,0.00,,,0.00,WUHU216HW,2013-01-21 04:16:00,
2013-01-20 20:22:00,46.8,23.5,30.08,North,0,0.0,0.0,40,0.00,,,0.00,WUHU216HW,2013-01-21 04:22:00,
2013-01-20 20:27:00,47.6,24.3,30.08,North,0,0.0,0.0,40,0.00,,,0.00,WUHU216HW,2013-01-21 04:27:00,
2013-01-20 20:32:00,48.1,24.1,30.08,North,0,0.0,0.0,39,0.00,,,0.00,WUHU216HW,2013-01-21 04:32:00,
2013-01-20 20:37:00,48.4,23.8,30.07,North,0,0.0,0.0,38,0.00,,,0.00,WUHU216HW,2013-01-21 04:37:00,
2013-01-20 20:42:00,48.2,24.2,30.08,North,0,0.0,0.0,39,0.00,,,0.00,WUHU216HW,2013-01-21 04:42:00,
2013-01-20 20:47:00,47.9,23.9,30.08,North,0,0.0,0.0,39,0.00,,,0.00,WUHU216HW,2013-01-21 04:47:00,
2013-01-20 20:52:00,47.2,23.9,30.08,North,0,0.0,0.0,40,0.00,,,0.00,WUHU216HW,2013-01-21 04:52:00,
2013-01-20 20:58:00,47.2,23.9,30.08,North,0,0.0,0.0,40,0.00,,,0.00,WUHU216HW,2013-01-21 04:58:00,
2013-01-20 21:02:00,47.2,23.3,30.08,North,0,0.0,0.0,39,0.00,,,0.00,WUHU216HW,2013-01-21 05:02:00,
2013-01-20 21:03:00,47.2,23.3,30.08,North,0,0.0,0.0,39,0.00,,,0.00,WUHU216HW,2013-01-21 05:03:00,
2013-01-20 21:04:00,47.2,23.3,30.08,North,0,0.0,0.0,39,0.00,,,0.00,WUHU216HW,2013-01-21 05:04:00,
2013-01-20 21:09:00,47.2,23.3,30.08,North,0,0.0,0.0,39,0.00,,,0.00,WUHU216HW,2013-01-21 05:09:00,
2013-01-20 21:14:00,47.2,23.2,30.07,North,0,0.0,0.0,39,0.00,,,0.00,WUHU216HW,2013-01-21 05:14:00,
2013-01-20 21:19:00,46.8,23.6,30.08,North,0,0.0,0.0,40,0.00,,,0.00,WUHU216HW,2013-01-21 05:19:00,
2013-01-20 21:24:00,46.2,24.2,30.07,North,0,0.0,0.0,42,0.00,,,0.00,WUHU216HW,2013-01-21 05:24:00,
2013-01-20 21:30:00,45.7,24.3,30.07,North,0,0.0,0.0,43,0.00,,,0.00,WUHU216HW,2013-01-21 05:30:00,
2013-01-20 21:35:00,45.7,24.9,30.07,North,0,0.0,0.0,44,0.00,,,0.00,WUHU216HW,2013-01-21 05:35:00,
2013-01-20 21:40:00,45.5,23.5,30.08,North,0,0.0,0.0,42,0.00,,,0.00,WUHU216HW,2013-01-21 05:40:00,
2013-01-20 21:45:00,45.9,24.0,30.08,North,0,0.0,0.0,42,0.00,,,0.00,WUHU216HW,2013-01-21 05:45:00,
2013-01-20 21:50:00,45.8,23.9,30.08,North,0,0.0,0.0,42,0.00,,,0.00,WUHU216HW,2013-01-21 05:50:00,
2013-01-20 21:55:00,45.6,24.2,30.08,North,0,0.0,0.0,43,0.00,,,0.00,WUHU216HW,2013-01-21 05:55:00,
2013-01-20 22:00:00,45.4,24.0,30.08,North,0,0.0,0.0,43,0.00,,,0.00,WUHU216HW,2013-01-21 06:00:00,
2013-01-20 22:05:00,45.4,24.0,30.08,North,0,0.0,0.0,43,0.00,,,0.00,WUHU216HW,2013-01-21 06:05:00,
2013-01-20 22:10:00,45.4,23.4,30.09,North,0,0.0,0.0,42,0.00,,,0.00,WUHU216HW,2013-01-21 06:10:00,
2013-01-20 22:15:00,45.8,23.3,30.09,North,0,0.0,0.0,41,0.00,,,0.00,WUHU216HW,2013-01-21 06:15:00,
2013-01-20 22:20:00,46.6,23.4,30.09,North,0,0.0,0.0,40,0.00,,,0.00,WUHU216HW,2013-01-21 06:20:00,
2013-01-20 22:25:00,46.0,22.8,30.09,North,0,0.0,0.0,40,0.00,,,0.00,WUHU216HW,2013-01-21 06:25:00,
2013-01-20 22:30:00,45.8,23.2,30.09,North,0,0.0,0.0,41,0.00,,,0.00,WUHU216HW,2013-01-21 06:30:00,
2013-01-20 22:35:00,45.8,22.6,30.09,North,0,0.0,0.0,40,0.00,,,0.00,WUHU216HW,2013-01-21 06:35:00,
2013-01-20 22:41:00,46.7,22.8,30.09,North,0,0.0,0.0,39,0.00,,,0.00,WUHU216HW,2013-01-21 06:41:00,
2013-01-20 22:46:00,47.0,23.1,30.08,North,0,0.0,0.0,39,0.00,,,0.00,WUHU216HW,2013-01-21 06:46:00,
2013-01-20 22:51:00,46.8,23.6,30.08,North,0,0.0,0.0,40,0.00,,,0.00,WUHU216HW,2013-01-21 06:51:00,
2013-01-20 22:56:00,46.5,24.5,30.08,North,0,0.0,0.0,42,0.00,,,0.00,WUHU216HW,2013-01-21 06:56:00,
2013-01-20 23:01:00,45.7,24.3,30.08,North,0,0.0,0.0,43,0.00,,,0.00,WUHU216HW,2013-01-21 07:01:00,
2013-01-20 23:06:00,45.0,24.2,30.08,North,0,0.0,0.0,44,0.00,,,0.00,WUHU216HW,2013-01-21 07:06:00,
2013-01-20 23:11:00,45.2,24.4,30.08,North,0,0.0,0.0,44,0.00,,,0.00,WUHU216HW,2013-01-21 07:11:00,
2013-01-20 23:16:00,45.4,23.4,30.08,North,0,0.0,0.0,42,0.00,,,0.00,WUHU216HW,2013-01-21 07:16:00,
2013-01-20 23:22:00,45.6,23.7,30.08,North,0,0.0,0.0,42,0.00,,,0.00,WUHU216HW,2013-01-21 07:22:00,
2013-01-20 23:27:00,45.6,23.7,30.08,North,0,0.0,0.0,42,0.00,,,0.00,WUHU216HW,2013-01-21 07:27:00,
2013-01-20 23:32:00,45.3,23.4,30.07,North,0,0.0,0.0,42,0.00,,,0.00,WUHU216HW,2013-01-21 07:32:00,
2013-01-20 23:37:00,45.3,24.0,30.08,North,0,0.0,0.0,43,0.00,,,0.00,WUHU216HW,2013-01-21 07:37:00,
2013-01-20 23:42:00,44.9,24.1,30.08,North,0,0.0,0.0,44,0.00,,,0.00,WUHU216HW,2013-01-21 07:42:00,
2013-01-20 23:47:00,44.9,24.1,30.07,North,0,0.0,0.0,44,0.00,,,0.00,WUHU216HW,2013-01-21 07:47:00,
2013-01-20 23:52:00,44.9,24.1,30.08,North,0,0.0,0.0,44,0.00,,,0.00,WUHU216HW,2013-01-21 07:52:00,
2013-01-20 23:57:00,44.2,23.5,30.07,North,0,0.0,0.0,44,0.00,,,0.00,WUHU216HW,2013-01-21 07:57:00,